Location: Eastlake (historical)
(39.0077°N, 122.6678°W)
Time: 09:56:31
(UTC+00:00)

Cosmos 1689 Rocket - Pass Details

Date: 25 November 2020
Orbit: 355 x 370 km, 97.5° (Epoch: 26 January)

Event Time Altitude Azimuth Distance (km) Brightness Sun altitude
Rises 13:40:09 0° 170° (S) 2,164 6.2 -16.3°
Reaches altitude 10° 13:42:03 10° 172° (S) 1,325 5.1 -15.9°
Maximum altitude 13:44:52 76° 259° (WSW) 372 1.8 -15.4°
Enters shadow 13:46:33 22° 342° (NNW) 853 3.5 -15.1°
